Скачать порно торрент без регистрации бесплатно.

Pornolabs.org отличный порно торрент. У нас вы сможете скачать порно через торрент на любой вкус. Самые горячие новинки порно за 2015 год. Имеются паки порно фильмов торрент, сайтрипы, хентай торрент, порно игры, японское порно, и даже гей порно. Скачать порно torrent намного проще, чем смотреть порно онлайн. Скачивая порно через торрент у нас Вы не пожалеете. Быстро, без регистрации, без вирусов. Самое горячее порно видео на Pornolabs.org. Порно с самимы популярными порно актриссами, такими например как Саша Грей, Лиза Энн и т.д. У нас даже можно скачать нетрадиционное порно, бдсм или например порно с транссексуалами. Оставайтесь с нами и сможете в любое время скачать новое порно бесплатно через торрент.

Скачать торрент [downblousejerk.com] (113) MegaPack / Подглядывание за сиськами в 4K [2015, Voyer, Flash, Upskirt, DownBlouse, Boobs, Panties]


Подглядывание за сиськами

Охваченный временной промежуток: 2015
Жанр: Voyer, Flash, Upskirt, DownBlouse, Boobs, Panties

Подсайт и сайт: downblousejerk.com
Тип ПАКа: В ПАКе больше 50 роликов (MegaPack)
Количество роликов: 113

Описание:

DownblouseJerk.com features high resolution voyeuristic videos scenes and HD picture sets from sexy girls that love encouraging you to masturbate.

The videos feature amazing cleavage shots, accidental nipple slips, lots of topless nudity together with some very dirty talking from some very naughty girls.

В паке ролики 4K на 2015 год
Скриншоты отдельные для оценки качества
Скринлисты к каждому ролику
2015.01.20 - Shelly_I_Want_To_Watch_You_Wank_4k.mp4 | 6:43.640 | 778,478 Mb | 3840x2160
2015.02.08 - Katie_Louise_Tits_In_Detention_4k.mp4 | 6:17.520 | 727,519 Mb | 3840x2160
2015.02.09 - Jenny_Smith_Mesmerizing_Tits_4k.mp4 | 6:35.840 | 762,898 Mb | 3840x2160
2015.02.10 - Georgie_Nipple_Slip_Voyeur_4k.mp4 | 4:07.600 | 474,663 Mb | 3840x2160
2015.02.17 - Brook_Scott_Miss_Scotts_Big_Boobs_4k.mp4 | 7:32.480 | 873,319 Mb | 3840x2160
2015.02.22 - Charlie_Rose_Where_Are_You_Looking_4k.mp4 | 4:59.200 | 575,248 Mb | 3840x2160
2015.02.23 - Jayne_Texting_Tease_4k.mp4 | 5:59.520 | 692,444 Mb | 3840x2160
2015.02.27 - Katie_Louise_Do_You_Like_My_Dress_4k.mp4 | 5:24.480 | 624,45 Mb | 3840x2160
2015.02.28 - Georgie_Casual_Slips_4k.mp4 | 5:25.600 | 626,555 Mb | 3840x2160
2015.03.01 - Cherry_Blush_A_Massive_Pair_4k.mp4 | 8:18.640 | 962,975 Mb | 3840x2160
2015.03.02 - Charlie_Elaine_Ill_Let_You_Wank_4k.mp4 | 7:03.720 | 817,345 Mb | 3840x2160
2015.03.03 - Brook_Scott_Downblouse_Treatment_4k.mp4 | 7:08.080 | 826,414 Mb | 3840x2160
2015.03.07 - Charlie_Rose_You_Cant_Handle_These_4k.mp4 | 5:01.280 | 579,168 Mb | 3840x2160
2015.03.09 - Cherry_Blush_Jerk_Off_Training_4k.mp4 | 6:03.960 | 701,271 Mb | 3840x2160
2015.03.10 - Jayne_Classroom_Downblouse_4k.mp4 | 6:46.360 | 782,66 Mb | 3840x2160
2015.03.12 - Brook_Scott_Big_Bouncy_Tits_4k.mp4 | 7:33.320 | 874,935 Mb | 3840x2160
2015.03.13 - Charlie_Elaine_Jizz_On_My_Tits_4k.mp4 | 5:49.880 | 674,09 Mb | 3840x2160
2015.03.14 - Amy_Rose_Tennis_Titties_4k.mp4 | 9:18.480 | 1 079,691 Mb | 3840x2160
2015.03.15 - Lu_Elissa_Ill_Let_You_Wank_4k.mp4 | 5:22.360 | 620,316 Mb | 3840x2160
2015.03.16 - Katie_Louise_Cum_On_Please_Help_4k.mp4 | 7:41.360 | 890,821 Mb | 3840x2160
2015.03.17 - Bex_Flash_Photography_4k.mp4 | 7:56.120 | 919,52 Mb | 3840x2160
2015.03.18 - Charlie_Rose_Bouncing_Boobs_4k.mp4 | 5:50.480 | 675,105 Mb | 3840x2160
2015.03.19 - Cherry_Blush_Wank_Over_My_Big_Tits_4k.mp4 | 6:46.200 | 783,402 Mb | 3840x2160
2015.03.23 - Amy_Rose_Miss_Roses_Teasing_Tits_4k.mp4 | 8:03.480 | 933,563 Mb | 3840x2160
2015.03.24 - Lu_Elissa_Workout_Wank_4k.mp4 | 6:51.160 | 793,089 Mb | 3840x2160
2015.03.26 - Charlie_Rose_New_Recruits_4k.mp4 | 6:39.440 | 770,433 Mb | 3840x2160
2015.03.27 - Chloe_Lovette_A_Really_Hard_Day_4k.mp4 | 8:52.640 | 1 029,248 Mb | 3840x2160
2015.03.28 - Jayne_Sun_Sea_And_Titties_4k.mp4 | 4:39.440 | 537,016 Mb | 3840x2160
2015.03.30 - Georgie_Tutors_Perky_Tits_4k.mp4 | 4:32.600 | 523,332 Mb | 3840x2160
2015.03.31 - Charlie_Elaine_Im_Gonna_Tease_Your_Cock_4k.mp4 | 6:45.320 | 781,554 Mb | 3840x2160
2015.04.01 - Brook_Scott_Constructive_Encouragement_4k.mp4 | 6:14.040 | 720,706 Mb | 3840x2160
2015.04.02 - Bex_Nip_Slip_Nurse_4k.mp4 | 5:28.000 | 631,486 Mb | 3840x2160
2015.04.03 - Rachael_C_Take_A_Good_Look_4k.mp4 | 5:28.920 | 632,986 Mb | 3840x2160
2015.04.04 - Rose_Downblouse_Deal_4k.mp4 | 7:31.920 | 872,052 Mb | 3840x2160
2015.04.06 - Amy_Rose_Jealous_Sister_4k.mp4 | 9:15.600 | 1 073,969 Mb | 3840x2160
2015.04.07 - Charlie_Rose_Braless_Workout_4k.mp4 | 6:32.480 | 756,415 Mb | 3840x2160
2015.04.08 - Chloe_Lovette_Best_Friends_Girlfriend_4k.mp4 | 8:30.280 | 985,907 Mb | 3840x2160
2015.04.09 - Georgie_Watch_Em_Bounce_4k.mp4 | 5:21.240 | 618,058 Mb | 3840x2160
2015.04.10 - Charlie_Elaine_Double_D_Distractions_4k.mp4 | 7:14.560 | 838,552 Mb | 3840x2160
2015.04.11 - Brook_Scott_Revealing_Cleavage_4k.mp4 | 9:19.040 | 1 080,687 Mb | 3840x2160
2015.04.12 - Stella_Cox_Busty_Wank_Bribe_4k.mp4 | 9:05.600 | 1 054,417 Mb | 3840x2160
2015.04.13 - Lizzie_Have_You_Seen_Them_4k.mp4 | 5:04.200 | 585,13 Mb | 3840x2160
2015.04.14 - Bex_Hot_And_Horny_4k.mp4 | 7:41.400 | 890,92 Mb | 3840x2160
2015.04.15 - Rachael_C_Youve_Seen_Enough_4k.mp4 | 6:06.440 | 706,126 Mb | 3840x2160
2015.04.16 - Rose_Cheeky_Wanker_4k.mp4 | 8:01.640 | 930,009 Mb | 3840x2160
2015.04.17 - Amy_Rose_Sweeping_Strokes_4k.mp4 | 7:53.120 | 913,47 Mb | 3840x2160
2015.04.18 - Charlie_Rose_Slips_And_Nips_4k.mp4 | 5:38.920 | 652,262 Mb | 3840x2160
2015.04.19 - Chloe_Lovette_Downblouse_Incentive_4k.mp4 | 8:56.760 | 1 037,425 Mb | 3840x2160
2015.04.20 - Georgie_C_Cup_Slut_4k.mp4 | 5:24.360 | 624,124 Mb | 3840x2160
2015.04.21 - Charlie_Elaine_Jerk_Off_Nurse_4k.mp4 | 5:03.040 | 582,645 Mb | 3840x2160
2015.04.22 - Brook_Scott_Shoot_Your_Spunk_4k.mp4 | 8:00.760 | 927,836 Mb | 3840x2160
2015.04.23 - Stella_Cox_Gym_Class_Pervert_4k.mp4 | 7:14.000 | 837,286 Mb | 3840x2160
2015.04.24 - Lizzie_Miss_Bossy_Big_Tits_4k.mp4 | 6:55.320 | 800,785 Mb | 3840x2160
2015.04.25 - Rachael_C_Big_Tits_Supervision_4k.mp4 | 6:17.680 | 727,848 Mb | 3840x2160
2015.04.26 - Katie_Louise_Polish_One_Off_4k.mp4 | 5:39.880 | 654,432 Mb | 3840x2160
2015.04.27 - Amy_Rose_Horny_Housemate_4k.mp4 | 7:13.440 | 836,321 Mb | 3840x2160
2015.04.28 - Charlie_Rose_Back_Breakers_4k.mp4 | 5:04.960 | 586,378 Mb | 3840x2160
2015.04.29 - Brook_Scott_A_Strong_Pulse_In_Your_Cock_4k.mp4 | 7:34.920 | 878,074 Mb | 3840x2160
2015.04.30 - Stella_Cox_Big_Boobs_In_Detention_4k.mp4 | 5:57.840 | 689,062 Mb | 3840x2160
2015.05.01 - Chloe_Lovette_Sauna_Tease_4k.mp4 | 8:58.080 | 1 040,132 Mb | 3840x2160
2015.05.02 - Beth_Wank_Before_Bed_4k.mp4 | 6:38.000 | 767,274 Mb | 3840x2160
2015.05.03 - Anna_Joy_Public_Nip_Slips_4k.mp4 | 7:23.880 | 856,413 Mb | 3840x2160
2015.05.04 - Carly_Rae_Tits_For_A_Lift_4k.mp4 | 7:09.720 | 829,213 Mb | 3840x2160
2015.05.05 - Lu_Elissa_Downblouse_Education_4k.mp4 | 6:16.320 | 725,383 Mb | 3840x2160
2015.05.06 - Charlie_Elaine_Youre_A_Tits_Man_4k.mp4 | 6:21.800 | 735,793 Mb | 3840x2160
2015.05.07 - Rachael_C_Busty_Issues_4k.mp4 | 5:51.040 | 676,203 Mb | 3840x2160
2015.05.08 - Jayne_Bouncy_Boobs_4k.mp4 | 4:49.200 | 555,473 Mb | 3840x2160
2015.05.09 - Natalia_Forrest_After_Class_Wank_4k.mp4 | 6:57.680 | 805,376 Mb | 3840x2160
2015.05.10 - Becky_Perry_Cover_My_Breasts_4k.mp4 | 8:18.600 | 962,911 Mb | 3840x2160
2015.05.11 - Katie_Louise_Workout_Slips_4k.mp4 | 7:28.680 | 865,691 Mb | 3840x2160
2015.05.12 - Amy_Rose_Wank_With_The_New_Girl_4k.mp4 | 7:32.640 | 873,764 Mb | 3840x2160
2015.05.13 - Charlie_Rose_Perfect_Poses_4k.mp4 | 6:19.200 | 730,996 Mb | 3840x2160
2015.05.13 - Penny_Lee_Lips_And_Tits_4k.mp4 | 6:44.440 | 1 540,069 Mb | 3840x2160
2015.05.14 - Brook_Scott_My_Tits_Want_Cum_4k.mp4 | 8:29.200 | 984,054 Mb | 3840x2160
2015.05.15 - Stella_Cox_Busty_Schedule_4k.mp4 | 6:14.840 | 722,515 Mb | 3840x2160
2015.05.16 - Beth_Start_With_Stretching_4k.mp4 | 7:31.320 | 871,016 Mb | 3840x2160
2015.05.17 - Anna_Joy_Sisters_Stained_Bras_4k.mp4 | 7:25.000 | 858,649 Mb | 3840x2160
2015.05.18 - Charlie_Elaine_Ill_Bounce_You_Wank_4k.mp4 | 5:41.040 | 656,942 Mb | 3840x2160
2015.05.19 - Natalia_Forrest_Hard_Nipple_Tease_4k.mp4 | 9:50.000 | 1 140,652 Mb | 3840x2160
2015.05.20 - Becky_Perry_Masturbating_In_Class_4k.mp4 | 7:34.920 | 878,021 Mb | 3840x2160
2015.05.21 - Katie_Louise_Classy_Cleavage_4k.mp4 | 7:03.320 | 816,6 Mb | 3840x2160
2015.05.22 - Charlie_Rose_Slips_At_The_Office_4k.mp4 | 6:52.400 | 795,575 Mb | 3840x2160
2015.05.23 - Millie_Fenton_Bathtime_Titties_4k.mp4 | 6:24.960 | 735,908 Mb | 3840x2160
2015.05.24 - Lizzie_College_Titty_Tease_4k.mp4 | 9:18.720 | 1 079,597 Mb | 3840x2160
2015.05.25 - Stella_Cox_Cheat_With_Me_4k.mp4 | 6:06.720 | 706,597 Mb | 3840x2160
2015.05.26 - Chloe_Lovette_Boobs_Of_The_Bride_4k.mp4 | 7:15.920 | 840,292 Mb | 3840x2160
2015.05.27 - Lu_Elissa_Is_Your_Cock_Hard_4k.mp4 | 5:33.720 | 642,546 Mb | 3840x2160
2015.05.28 - Anna_Joy_Wank_Warm_Up_4k.mp4 | 6:06.240 | 705,889 Mb | 3840x2160
2015.05.29 - Amy_Rose_Steamy_Encounter_4k.mp4 | 4:30.760 | 519,554 Mb | 3840x2160
2015.05.30 - Rachael_C_Titties_Just_For_You_4k.mp4 | 5:03.120 | 582,703 Mb | 3840x2160
2015.05.31 - Carly_Rae_Cum_Over_My_Tits_4k.mp4 | 7:17.120 | 843,516 Mb | 3840x2160
2015.06.02 - Becky_Perry_Jerk_Off_Session_4k.mp4 | 7:19.120 | 847,2 Mb | 3840x2160
2015.06.03 - Beth_Erotic_Reading_The_Hockey_Game_4k.mp4 | 9:24.760 | 1 091,53 Mb | 3840x2160
2015.06.04 - Charlie_Rose_Attention_Please_4k.mp4 | 6:26.880 | 745,577 Mb | 3840x2160
2015.06.05 - Millie_Fenton_Busty_Blonde_4k.mp4 | 6:29.320 | 743,988 Mb | 3840x2160
2015.06.06 - Lizzie_Nippy_Service_4k.mp4 | 5:35.680 | 646,164 Mb | 3840x2160
2015.06.08 - Amy_Rose_After_College_Wank_4k.mp4 | 7:35.320 | 878,853 Mb | 3840x2160
2015.06.09 - Tina_Kay_Pervy_Photoshoot_4k.mp4 | 6:06.880 | 700,729 Mb | 3840x2160
2015.06.10 - Penny_Lee_Natural_Distractions_4k.mp4 | 6:52.160 | 788,351 Mb | 3840x2160
2015.06.11 - Brook_Scott_Watch_Them_Bounce_4k.mp4 | 6:59.680 | 801,848 Mb | 3840x2160
2015.06.12 - Katie_Louise_Big_Boobs_Seduction_4k.mp4 | 9:43.600 | 1 119,468 Mb | 3840x2160
2015.06.13 - Rachael_C_Sweeping_Side_Boob_4k.mp4 | 5:22.480 | 615,164 Mb | 3840x2160
2015.06.14 - Becky_Perry_Sisters_Sheer_Slips_4k.mp4 | 6:05.880 | 698,962 Mb | 3840x2160
2015.06.15 - Carly_Rae_Big_Tits_Gym_Slut_4k.mp4 | 8:46.040 | 1 008,399 Mb | 3840x2160
2015.06.16 - Charlie_Rose_Steamy_Slips_4k.mp4 | 8:11.320 | 948,733 Mb | 3840x2160
2015.06.17 - Lizzie_Busty_Photoshoot_4k.mp4 | 5:49.080 | 666,66 Mb | 3840x2160
2015.06.18 - Millie_Fenton_Sisters_Flirty_Tits_4k.mp4 | 5:59.640 | 687,502 Mb | 3840x2160
2015.06.19 - Penny_Lee_I_Want_You_To_Wank_4k.mp4 | 7:31.680 | 864,466 Mb | 3840x2160
2015.06.20 - Jen_Nev_Locker_Room_Pervert_4k.mp4 | 6:35.040 | 763,298 Mb | 3840x2160
2015.06.21 - Samantha_Bentley_Wank_Over_My_Tits_4k.mp4 | 6:41.040 | 767,419 Mb | 3840x2160
2015.06.22 - Lu_Elissa_Boyfriends_Treat_4k.mp4 | 6:25.400 | 738,198 Mb | 3840x2160
2015.06.23 - Tina_Kay_Bathroom_Boobs_4k.mp4 | 5:43.520 | 657,593 Mb | 3840x2160
[/spoiler]
Залилpornolabs.org Super USER
КатегорияНетрадиционное порно
Раздают0
Качают0
Добавлен25-Авг-2015 17:11 (1 год 4 месяца назад)
Размер88.39 GB (94908830249 Bytes)
Добавить в закладки
Файлы (226)


Написать комментарий


Файлы для обмена предоставлены пользователями сайта. Администрация не несёт ответственности за их содержание. На сервере хранятся только торрент-файлы. Это значит, что мы не храним никаких нелегальных материалов, а так же материалов охраняемых авторским правом.